owner,sensor,date,latitude,longitude,vertical_datum,direction_of_sea_water_velocity,sea_water_speed,upward_sea_water_velocity,qcFlag 
TABS,ioos:station:wmo:42043:1,2017-09-01T00:00:00Z,28.9818,-94.9186,2.0,158.1039618,45.04975028,-99999.0,'11111222,11111222,99999999' 
TABS,ioos:station:wmo:42043:1,2017-09-01T00:30:00Z,28.9818,-94.9186,2.0,157.9319416,43.91742251,-99999.0,'11111222,11111222,99999999' 
TABS,ioos:station:wmo:42043:1,2017-09-01T01:00:00Z,28.9818,-94.9186,2.0,157.4590195,44.60773476,-99999.0,'11111222,11111222,99999999' 
TABS,ioos:station:wmo:42043:1,2017-09-01T01:30:00Z,28.9818,-94.9186,2.0,159.5714626,47.27303671,-99999.0,'11111222,11111222,99999999' 
TABS,ioos:station:wmo:42043:1,2017-09-01T02:00:00Z,28.9818,-94.9186,2.0,156.3566175,47.37678757,-99999.0,'11111222,11111222,99999999' 
TABS,ioos:station:wmo:42043:1,2017-09-01T02:30:00Z,28.9818,-94.9186,2.0,152.9827732,45.34886989,-99999.0,'11111222,11111222,99999999' 
TABS,ioos:station:wmo:42043:1,2017-09-01T03:00:00Z,28.9818,-94.9186,2.0,156.4356828,45.27537962,-99999.0,'11111222,11111222,99999999' 
TABS,ioos:station:wmo:42043:1,2017-09-01T03:30:00Z,28.9818,-94.9186,2.0,156.590071,46.31209345,-99999.0,'11111222,11111222,99999999' 
TABS,ioos:station:wmo:42043:1,2017-09-01T04:00:00Z,28.9818,-94.9186,2.0,158.6445766,45.31103618,-99999.0,'11111222,11111222,99999999' 
TABS,ioos:station:wmo:42043:1,2017-09-01T04:30:00Z,28.9818,-94.9186,2.0,158.9174884,45.8703608,-99999.0,'11111222,11111222,99999999' 
TABS,ioos:station:wmo:42043:1,2017-09-01T05:00:00Z,28.9818,-94.9186,2.0,158.1039618,45.04975028,-99999.0,'11111222,11111222,99999999' 
TABS,ioos:station:wmo:42043:1,2017-09-01T05:30:00Z,28.9818,-94.9186,2.0,158.4145494,44.30722289,-99999.0,'11111222,11111222,99999999' 
TABS,ioos:station:wmo:42043:1,2017-09-01T06:00:00Z,28.9818,-94.9186,2.0,159.1930472,48.13948483,-99999.0,'11111222,11111222,99999999' 
TABS,ioos:station:wmo:42043:1,2017-09-01T06:30:00Z,28.9818,-94.9186,2.0,160.2438347,45.26422428,-99999.0,'11111222,11111222,99999999' 
TABS,ioos:station:wmo:42043:1,2017-09-01T07:00:00Z,28.9818,-94.9186,2.0,164.8723652,43.30046189,-99999.0,'11111222,11111222,99999999' 
TABS,ioos:station:wmo:42043:1,2017-09-01T07:30:00Z,28.9818,-94.9186,2.0,161.3106149,42.75441498,-99999.0,'11111222,11111222,99999999' 
TABS,ioos:station:wmo:42043:1,2017-09-01T08:00:00Z,28.9818,-94.9186,2.0,163.3005844,46.98137929,-99999.0,'11111222,11111222,99999999' 
TABS,ioos:station:wmo:42043:1,2017-09-01T08:30:00Z,28.9818,-94.9186,2.0,162.3743446,40.2914383,-99999.0,'11111222,11111222,99999999' 
TABS,ioos:station:wmo:42043:1,2017-09-01T09:00:00Z,28.9818,-94.9186,2.0,169.7682085,48.978873,-99999.0,'11111222,11111222,99999999' 
TABS,ioos:station:wmo:42043:1,2017-09-01T09:30:00Z,28.9818,-94.9186,2.0,169.3722431,44.46268098,-99999.0,'11111222,11111222,99999999' 
TABS,ioos:station:wmo:42043:1,2017-09-01T10:00:00Z,28.9818,-94.9186,2.0,168.6898835,45.89117562,-99999.0,'11111222,11111222,99999999' 
TABS,ioos:station:wmo:42043:1,2017-09-01T10:30:00Z,28.9818,-94.9186,2.0,169.0099676,45.63693679,-99999.0,'11111222,11111222,99999999' 
TABS,ioos:station:wmo:42043:1,2017-09-01T11:00:00Z,28.9818,-94.9186,2.0,170.0233402,42.137157,-99999.0,'11111222,11111222,99999999' 
TABS,ioos:station:wmo:42043:1,2017-09-01T11:30:00Z,28.9818,-94.9186,2.0,170.2036025,42.31701785,-99999.0,'11111222,11111222,99999999' 
TABS,ioos:station:wmo:42043:1,2017-09-01T12:00:00Z,28.9818,-94.9186,2.0,166.5687921,41.33037624,-99999.0,'11111222,11111222,99999999' 
TABS,ioos:station:wmo:42043:1,2017-09-01T12:30:00Z,28.9818,-94.9186,2.0,169.8312966,41.34948609,-99999.0,'11111222,11111222,99999999' 
TABS,ioos:station:wmo:42043:1,2017-09-01T13:00:00Z,28.9818,-94.9186,2.0,173.2074931,40.58484939,-99999.0,'11111222,11111222,99999999' 
TABS,ioos:station:wmo:42043:1,2017-09-01T13:30:00Z,28.9818,-94.9186,2.0,171.6636076,39.31539139,-99999.0,'11111222,11111222,99999999' 
TABS,ioos:station:wmo:42043:1,2017-09-01T14:00:00Z,28.9818,-94.9186,2.0,170.5374895,41.97106146,-99999.0,'11111222,11111222,99999999' 
TABS,ioos:station:wmo:42043:1,2017-09-01T14:30:00Z,28.9818,-94.9186,2.0,171.3754354,39.34488531,-99999.0,'11111222,11111222,99999999' 
TABS,ioos:station:wmo:42043:1,2017-09-01T15:00:00Z,28.9818,-94.9186,2.0,174.1734611,39.40355314,-99999.0,'11111222,11111222,99999999' 
TABS,ioos:station:wmo:42043:1,2017-09-01T15:30:00Z,28.9818,-94.9186,2.0,168.9296129,37.49773326,-99999.0,'11111222,11111222,99999999' 
TABS,ioos:station:wmo:42043:1,2017-09-01T16:00:00Z,28.9818,-94.9186,2.0,171.3543872,34.59306289,-99999.0,'11111222,11111222,99999999' 
TABS,ioos:station:wmo:42043:1,2017-09-01T16:30:00Z,28.9818,-94.9186,2.0,169.772081,33.22800024,-99999.0,'11111222,11111222,99999999' 
TABS,ioos:station:wmo:42043:1,2017-09-01T17:00:00Z,28.9818,-94.9186,2.0,166.844365,34.71094928,-99999.0,'11111222,11111222,99999999' 
TABS,ioos:station:wmo:42043:1,2017-09-01T17:30:00Z,28.9818,-94.9186,2.0,168.5504783,32.24158805,-99999.0,'11111222,11111222,99999999' 
TABS,ioos:station:wmo:42043:1,2017-09-01T18:00:00Z,28.9818,-94.9186,2.0,169.135755,30.24202374,-99999.0,'11111222,11111222,99999999' 
TABS,ioos:station:wmo:42043:1,2017-09-01T18:30:00Z,28.9818,-94.9186,2.0,169.9802839,28.73830197,-99999.0,'11111222,11111222,99999999' 
TABS,ioos:station:wmo:42043:1,2017-09-01T19:00:00Z,28.9818,-94.9186,2.0,175.8148832,28.77672671,-99999.0,'11111222,11111222,99999999' 
TABS,ioos:station:wmo:42043:1,2017-09-01T19:30:00Z,28.9818,-94.9186,2.0,176.1452701,28.26393462,-99999.0,'11111222,11111222,99999999' 
TABS,ioos:station:wmo:42043:1,2017-09-01T20:00:00Z,28.9818,-94.9186,2.0,176.7687872,24.8394847,-99999.0,'11111222,11111222,99999999' 
TABS,ioos:station:wmo:42043:1,2017-09-01T20:30:00Z,28.9818,-94.9186,2.0,181.4500024,23.70759372,-99999.0,'11111222,11111222,99999999' 
TABS,ioos:station:wmo:42043:1,2017-09-01T21:00:00Z,28.9818,-94.9186,2.0,184.784308,22.77937664,-99999.0,'11111222,11111222,99999999' 
TABS,ioos:station:wmo:42043:1,2017-09-01T21:30:00Z,28.9818,-94.9186,2.0,188.4887136,20.32264747,-99999.0,'11111222,11111222,99999999' 
TABS,ioos:station:wmo:42043:1,2017-09-01T22:00:00Z,28.9818,-94.9186,2.0,177.6384204,19.41648784,-99999.0,'11111222,11111222,99999999' 
TABS,ioos:station:wmo:42043:1,2017-09-01T22:30:00Z,28.9818,-94.9186,2.0,186.8088238,20.24277649,-99999.0,'11111222,11111222,99999999' 
TABS,ioos:station:wmo:42043:1,2017-09-01T23:00:00Z,28.9818,-94.9186,2.0,194.8707121,18.31338308,-99999.0,'11111222,11111222,99999999' 
TABS,ioos:station:wmo:42043:1,2017-09-01T23:30:00Z,28.9818,-94.9186,2.0,183.5421424,21.04019962,-99999.0,'11111222,11111222,99999999' 
TABS,ioos:station:wmo:42043:1,2017-09-02T00:00:00Z,28.9818,-94.9186,2.0,177.329906,19.32097306,-99999.0,'11111222,11111222,99999999' 
TABS,ioos:station:wmo:42043:1,2017-09-02T00:30:00Z,28.9818,-94.9186,2.0,181.9365854,20.71183237,-99999.0,'11111222,11111222,99999999' 
TABS,ioos:station:wmo:42043:1,2017-09-02T01:00:00Z,28.9818,-94.9186,2.0,185.7103693,21.1047388,-99999.0,'11111222,11111222,99999999' 
TABS,ioos:station:wmo:42043:1,2017-09-02T01:30:00Z,28.9818,-94.9186,2.0,189.4107495,18.34693435,-99999.0,'11111222,11111222,99999999' 
TABS,ioos:station:wmo:42043:1,2017-09-02T02:00:00Z,28.9818,-94.9186,2.0,185.3143228,17.27425831,-99999.0,'11111222,11111222,99999999' 
TABS,ioos:station:wmo:42043:1,2017-09-02T02:30:00Z,28.9818,-94.9186,2.0,179.3770353,18.40108692,-99999.0,'11111222,11111222,99999999' 
TABS,ioos:station:wmo:42043:1,2017-09-02T03:00:00Z,28.9818,-94.9186,2.0,186.920891,17.42699056,-99999.0,'11111222,11111222,99999999' 
TABS,ioos:station:wmo:42043:1,2017-09-02T03:30:00Z,28.9818,-94.9186,2.0,183.4585058,18.23321146,-99999.0,'11111222,11111222,99999999' 
TABS,ioos:station:wmo:42043:1,2017-09-02T04:00:00Z,28.9818,-94.9186,2.0,185.0128916,17.1656634,-99999.0,'11111222,11111222,99999999' 
TABS,ioos:station:wmo:42043:1,2017-09-02T04:30:00Z,28.9818,-94.9186,2.0,186.225604,16.59789143,-99999.0,'11111222,11111222,99999999' 
TABS,ioos:station:wmo:42043:1,2017-09-02T05:00:00Z,28.9818,-94.9186,2.0,191.1289528,18.65073725,-99999.0,'11111222,11111222,99999999' 
TABS,ioos:station:wmo:42043:1,2017-09-02T05:30:00Z,28.9818,-94.9186,2.0,193.8147826,18.84515853,-99999.0,'11111222,11111222,99999999' 
TABS,ioos:station:wmo:42043:1,2017-09-02T06:00:00Z,28.9818,-94.9186,2.0,196.7293742,18.06460628,-99999.0,'11111222,11111222,99999999' 
TABS,ioos:station:wmo:42043:1,2017-09-02T06:30:00Z,28.9818,-94.9186,2.0,203.3849559,16.1245155,-99999.0,'11111222,11111222,99999999' 
TABS,ioos:station:wmo:42043:1,2017-09-02T07:00:00Z,28.9818,-94.9186,2.0,197.8992375,16.91892432,-99999.0,'11111222,11111222,99999999' 
TABS,ioos:station:wmo:42043:1,2017-09-02T07:30:00Z,28.9818,-94.9186,2.0,192.8211034,14.87077671,-99999.0,'11111222,11111222,99999999' 
TABS,ioos:station:wmo:42043:1,2017-09-02T08:00:00Z,28.9818,-94.9186,2.0,196.0539717,14.46409347,-99999.0,'11111222,11111222,99999999' 
TABS,ioos:station:wmo:42043:1,2017-09-02T08:30:00Z,28.9818,-94.9186,2.0,197.4821238,13.3150291,-99999.0,'11111222,11111222,99999999' 
TABS,ioos:station:wmo:42043:1,2017-09-02T09:00:00Z,28.9818,-94.9186,2.0,202.7747058,14.20774437,-99999.0,'11111222,11111222,99999999' 
TABS,ioos:station:wmo:42043:1,2017-09-02T09:30:00Z,28.9818,-94.9186,2.0,205.6554003,14.0890028,-99999.0,'11111222,11111222,99999999' 
TABS,ioos:station:wmo:42043:1,2017-09-02T10:00:00Z,28.9818,-94.9186,2.0,202.7141488,13.98463442,-99999.0,'11111222,11111222,99999999' 
TABS,ioos:station:wmo:42043:1,2017-09-02T10:30:00Z,28.9818,-94.9186,2.0,203.8056774,14.86472334,-99999.0,'11111222,11111222,99999999' 
TABS,ioos:station:wmo:42043:1,2017-09-02T11:00:00Z,28.9818,-94.9186,2.0,194.8583692,15.20855023,-99999.0,'11111222,11111222,99999999' 
TABS,ioos:station:wmo:42043:1,2017-09-02T11:30:00Z,28.9818,-94.9186,2.0,193.9522347,16.58945448,-99999.0,'11111222,11111222,99999999' 
TABS,ioos:station:wmo:42043:1,2017-09-02T12:00:00Z,28.9818,-94.9186,2.0,190.5457989,19.12302277,-99999.0,'11111222,11111222,99999999' 
TABS,ioos:station:wmo:42043:1,2017-09-02T12:30:00Z,28.9818,-94.9186,2.0,189.918417,18.57767477,-99999.0,'11111222,11111222,99999999' 
TABS,ioos:station:wmo:42043:1,2017-09-02T13:00:00Z,28.9818,-94.9186,2.0,184.2813158,18.75233319,-99999.0,'11111222,11111222,99999999' 
TABS,ioos:station:wmo:42043:1,2017-09-02T13:30:00Z,28.9818,-94.9186,2.0,176.3475753,18.83825894,-99999.0,'11111222,11111222,99999999' 
TABS,ioos:station:wmo:42043:1,2017-09-02T14:00:00Z,28.9818,-94.9186,2.0,174.3822221,18.3883115,-99999.0,'11111222,11111222,99999999' 
TABS,ioos:station:wmo:42043:1,2017-09-02T14:30:00Z,28.9818,-94.9186,2.0,174.9918294,19.47434209,-99999.0,'11111222,11111222,99999999' 
TABS,ioos:station:wmo:42043:1,2017-09-02T15:00:00Z,28.9818,-94.9186,2.0,169.76877,20.83122656,-99999.0,'11111222,11111222,99999999' 
TABS,ioos:station:wmo:42043:1,2017-09-02T15:30:00Z,28.9818,-94.9186,2.0,174.5594702,18.9855208,-99999.0,'11111222,11111222,99999999' 
TABS,ioos:station:wmo:42043:1,2017-09-02T16:00:00Z,28.9818,-94.9186,2.0,181.3637139,21.00595154,-99999.0,'11111222,11111222,99999999' 
TABS,ioos:station:wmo:42043:1,2017-09-02T16:30:00Z,28.9818,-94.9186,2.0,180.5587537,20.50097559,-99999.0,'11111222,11111222,99999999' 
TABS,ioos:station:wmo:42043:1,2017-09-02T17:00:00Z,28.9818,-94.9186,2.0,174.0529404,19.30388562,-99999.0,'11111222,11111222,99999999' 
TABS,ioos:station:wmo:42043:1,2017-09-02T17:30:00Z,28.9818,-94.9186,2.0,178.0799839,17.91005304,-99999.0,'11111222,11111222,99999999' 
TABS,ioos:station:wmo:42043:1,2017-09-02T18:00:00Z,28.9818,-94.9186,2.0,179.0502249,18.10248602,-99999.0,'11111222,11111222,99999999' 
TABS,ioos:station:wmo:42043:1,2017-09-02T18:30:00Z,28.9818,-94.9186,2.0,185.3007037,19.4833262,-99999.0,'11111222,11111222,99999999' 
TABS,ioos:station:wmo:42043:1,2017-09-02T19:00:00Z,28.9818,-94.9186,2.0,184.5478213,17.65559401,-99999.0,'11111222,11111222,99999999' 
TABS,ioos:station:wmo:42043:1,2017-09-02T19:30:00Z,28.9818,-94.9186,2.0,184.9695186,16.16075493,-99999.0,'11111222,11111222,99999999' 
TABS,ioos:station:wmo:42043:1,2017-09-02T20:00:00Z,28.9818,-94.9186,2.0,190.3046119,16.77050983,-99999.0,'11111222,11111222,99999999' 
TABS,ioos:station:wmo:42043:1,2017-09-02T20:30:00Z,28.9818,-94.9186,2.0,197.3306332,14.77057886,-99999.0,'11111222,11111222,99999999' 
TABS,ioos:station:wmo:42043:1,2017-09-02T21:00:00Z,28.9818,-94.9186,2.0,200.6133702,11.64560003,-99999.0,'11111222,11111222,99999999' 
TABS,ioos:station:wmo:42043:1,2017-09-02T21:30:00Z,28.9818,-94.9186,2.0,201.1045788,12.2196563,-99999.0,'11111222,11111222,99999999' 
TABS,ioos:station:wmo:42043:1,2017-09-02T22:00:00Z,28.9818,-94.9186,2.0,198.2959651,13.06024502,-99999.0,'11111222,11111222,99999999' 
TABS,ioos:station:wmo:42043:1,2017-09-02T22:30:00Z,28.9818,-94.9186,2.0,193.8404527,14.2126704,-99999.0,'11111222,11111222,99999999' 
TABS,ioos:station:wmo:42043:1,2017-09-02T23:00:00Z,28.9818,-94.9186,2.0,193.0827496,14.57840869,-99999.0,'11111222,11111222,99999999' 
TABS,ioos:station:wmo:42043:1,2017-09-02T23:30:00Z,28.9818,-94.9186,2.0,189.3980006,14.69727866,-99999.0,'11111222,11111222,99999999' 
TABS,ioos:station:wmo:42043:1,2017-09-03T00:00:00Z,28.9818,-94.9186,2.0,191.3918987,13.66930869,-99999.0,'11111222,11111222,99999999' 
TABS,ioos:station:wmo:42043:1,2017-09-03T00:30:00Z,28.9818,-94.9186,2.0,191.8884198,11.6498927,-99999.0,'11111222,11111222,99999999' 
TABS,ioos:station:wmo:42043:1,2017-09-03T01:00:00Z,28.9818,-94.9186,2.0,183.8138555,12.0266371,-99999.0,'11111222,11111222,99999999' 
TABS,ioos:station:wmo:42043:1,2017-09-03T01:30:00Z,28.9818,-94.9186,2.0,182.8621881,14.01748908,-99999.0,'11111222,11111222,99999999' 
TABS,ioos:station:wmo:42043:1,2017-09-03T02:00:00Z,28.9818,-94.9186,2.0,174.1734611,14.77633243,-99999.0,'11111222,11111222,99999999' 
TABS,ioos:station:wmo:42043:1,2017-09-03T02:30:00Z,28.9818,-94.9186,2.0,176.0273029,14.43468046,-99999.0,'11111222,11111222,99999999' 
TABS,ioos:station:wmo:42043:1,2017-09-03T03:00:00Z,28.9818,-94.9186,2.0,179.5657399,13.20037878,-99999.0,'11111222,11111222,99999999' 
TABS,ioos:station:wmo:42043:1,2017-09-03T03:30:00Z,28.9818,-94.9186,2.0,183.1106229,18.42715388,-99999.0,'11111222,11111222,99999999' 
TABS,ioos:station:wmo:42043:1,2017-09-03T04:00:00Z,28.9818,-94.9186,2.0,183.8138555,16.53662602,-99999.0,'11111222,11111222,99999999' 
TABS,ioos:station:wmo:42043:1,2017-09-03T04:30:00Z,28.9818,-94.9186,2.0,181.1532373,14.90301983,-99999.0,'11111222,11111222,99999999' 
TABS,ioos:station:wmo:42043:1,2017-09-03T05:00:00Z,28.9818,-94.9186,2.0,182.2268313,18.01360597,-99999.0,'11111222,11111222,99999999' 
TABS,ioos:station:wmo:42043:1,2017-09-03T05:30:00Z,28.9818,-94.9186,2.0,183.4062253,16.82973559,-99999.0,'11111222,11111222,99999999' 
TABS,ioos:station:wmo:42043:1,2017-09-03T06:00:00Z,28.9818,-94.9186,2.0,183.7515098,18.33930206,-99999.0,'11111222,11111222,99999999' 
TABS,ioos:station:wmo:42043:1,2017-09-03T06:30:00Z,28.9818,-94.9186,2.0,183.9326766,16.03776792,-99999.0,'11111222,11111222,99999999' 
TABS,ioos:station:wmo:42043:1,2017-09-03T07:00:00Z,28.9818,-94.9186,2.0,186.6707266,17.21656179,-99999.0,'11111222,11111222,99999999' 
TABS,ioos:station:wmo:42043:1,2017-09-03T07:30:00Z,28.9818,-94.9186,2.0,190.2219343,24.79354755,-99999.0,'11111222,11111222,99999999' 
TABS,ioos:station:wmo:42043:1,2017-09-03T08:00:00Z,28.9818,-94.9186,2.0,198.1082279,22.19954954,-99999.0,'11111222,11111222,99999999' 
TABS,ioos:station:wmo:42043:1,2017-09-03T08:30:00Z,28.9818,-94.9186,2.0,201.317652,17.60454487,-99999.0,'11111222,11111222,99999999' 
TABS,ioos:station:wmo:42043:1,2017-09-03T09:00:00Z,28.9818,-94.9186,2.0,205.0716283,18.87882412,-99999.0,'11111222,11111222,99999999' 
TABS,ioos:station:wmo:42043:1,2017-09-03T09:30:00Z,28.9818,-94.9186,2.0,221.5244597,17.49771414,-99999.0,'11111222,11111222,99999999' 
TABS,ioos:station:wmo:42043:1,2017-09-03T10:00:00Z,28.9818,-94.9186,2.0,223.9288624,15.13472828,-99999.0,'11111222,11111222,99999999' 
TABS,ioos:station:wmo:42043:1,2017-09-03T10:30:00Z,28.9818,-94.9186,2.0,230.1941011,14.83947438,-99999.0,'11111222,11111222,99999999' 
TABS,ioos:station:wmo:42043:1,2017-09-03T11:00:00Z,28.9818,-94.9186,2.0,224.9996843,11.59655121,-99999.0,'11111222,11111222,99999999' 
TABS,ioos:station:wmo:42043:1,2017-09-03T11:30:00Z,28.9818,-94.9186,2.0,224.9996843,11.3137085,-99999.0,'11111222,11111222,99999999' 
TABS,ioos:station:wmo:42043:1,2017-09-03T12:00:00Z,28.9818,-94.9186,2.0,227.254254,8.987213139,-99999.0,'11133222,11111222,99999999' 
TABS,ioos:station:wmo:42043:1,2017-09-03T12:30:00Z,28.9818,-94.9186,2.0,223.2282187,6.862215386,-99999.0,'11133222,11111222,99999999' 
TABS,ioos:station:wmo:42043:1,2017-09-03T13:00:00Z,28.9818,-94.9186,2.0,208.249459,7.605918748,-99999.0,'11133222,11111222,99999999' 
TABS,ioos:station:wmo:42043:1,2017-09-03T13:30:00Z,28.9818,-94.9186,2.0,196.0905683,5.412023651,-99999.0,'11133222,11111222,99999999' 
TABS,ioos:station:wmo:42043:1,2017-09-03T14:00:00Z,28.9818,-94.9186,2.0,190.1244375,5.688585061,-99999.0,'11133222,11111222,99999999' 
TABS,ioos:station:wmo:42043:1,2017-09-03T14:30:00Z,28.9818,-94.9186,2.0,158.458864,4.085339643,-99999.0,'11133222,11111222,99999999' 
TABS,ioos:station:wmo:42043:1,2017-09-03T15:00:00Z,28.9818,-94.9186,2.0,159.623402,3.733630941,-99999.0,'11133222,11111222,99999999' 
TABS,ioos:station:wmo:42043:1,2017-09-03T15:30:00Z,28.9818,-94.9186,2.0,146.3098008,4.326661531,-99999.0,'11133222,11111222,99999999' 
TABS,ioos:station:wmo:42043:1,2017-09-03T16:00:00Z,28.9818,-94.9186,2.0,152.4470424,5.188448708,-99999.0,'11133222,11111222,99999999' 
TABS,ioos:station:wmo:42043:1,2017-09-03T16:30:00Z,28.9818,-94.9186,2.0,147.0946236,4.049691346,-99999.0,'11133222,11111222,99999999' 
TABS,ioos:station:wmo:42043:1,2017-09-03T17:00:00Z,28.9818,-94.9186,2.0,142.5492989,5.920304046,-99999.0,'11133222,11111222,99999999' 
TABS,ioos:station:wmo:42043:1,2017-09-03T17:30:00Z,28.9818,-94.9186,2.0,138.3663476,6.020797289,-99999.0,'11133222,11111222,99999999' 
TABS,ioos:station:wmo:42043:1,2017-09-03T18:00:00Z,28.9818,-94.9186,2.0,148.1090723,5.3,-99999.0,'11133222,11111222,99999999' 
TABS,ioos:station:wmo:42043:1,2017-09-03T18:30:00Z,28.9818,-94.9186,2.0,119.4758201,5.283937925,-99999.0,'11133222,11111222,99999999' 
TABS,ioos:station:wmo:42043:1,2017-09-03T19:00:00Z,28.9818,-94.9186,2.0,136.6845751,4.810405388,-99999.0,'11133222,11111222,99999999' 
TABS,ioos:station:wmo:42043:1,2017-09-03T19:30:00Z,28.9818,-94.9186,2.0,118.0337863,8.723531395,-99999.0,'11133222,11111222,99999999' 
TABS,ioos:station:wmo:42043:1,2017-09-03T20:00:00Z,28.9818,-94.9186,2.0,122.828465,7.378346698,-99999.0,'11133222,11111222,99999999' 
TABS,ioos:station:wmo:42043:1,2017-09-03T20:30:00Z,28.9818,-94.9186,2.0,112.2249785,10.04639239,-99999.0,'11111222,11111222,99999999' 
TABS,ioos:station:wmo:42043:1,2017-09-03T21:00:00Z,28.9818,-94.9186,2.0,116.8108916,10.42017274,-99999.0,'11111222,11111222,99999999' 
TABS,ioos:station:wmo:42043:1,2017-09-03T21:30:00Z,28.9818,-94.9186,2.0,112.7143592,9.323089617,-99999.0,'11133222,11111222,99999999' 
TABS,ioos:station:wmo:42043:1,2017-09-03T22:00:00Z,28.9818,-94.9186,2.0,109.108941,13.44061011,-99999.0,'11111222,11111222,99999999' 
TABS,ioos:station:wmo:42043:1,2017-09-03T22:30:00Z,28.9818,-94.9186,2.0,108.2678635,10.84665847,-99999.0,'11111222,11111222,99999999' 
TABS,ioos:station:wmo:42043:1,2017-09-03T23:00:00Z,28.9818,-94.9186,2.0,111.2749202,12.12641744,-99999.0,'11111222,11111222,99999999' 
TABS,ioos:station:wmo:42043:1,2017-09-03T23:30:00Z,28.9818,-94.9186,2.0,121.7988385,11.76605286,-99999.0,'11111222,11111222,99999999' 
TABS,ioos:station:wmo:42043:1,2017-09-04T00:00:00Z,28.9818,-94.9186,2.0,120.1136627,11.56027681,-99999.0,'11111222,11111222,99999999' 
TABS,ioos:station:wmo:42043:1,2017-09-04T00:30:00Z,28.9818,-94.9186,2.0,132.3674661,12.31665539,-99999.0,'11111222,11111222,99999999' 
TABS,ioos:station:wmo:42043:1,2017-09-04T01:00:00Z,28.9818,-94.9186,2.0,143.1299781,11.5,-99999.0,'11111222,11111222,99999999' 
TABS,ioos:station:wmo:42043:1,2017-09-04T01:30:00Z,28.9818,-94.9186,2.0,144.6732276,12.6245792,-99999.0,'11111222,11111222,99999999' 
TABS,ioos:station:wmo:42043:1,2017-09-04T02:00:00Z,28.9818,-94.9186,2.0,166.0750489,12.46635472,-99999.0,'11111222,11111222,99999999' 
TABS,ioos:station:wmo:42043:1,2017-09-04T02:30:00Z,28.9818,-94.9186,2.0,165.3789497,14.26183719,-99999.0,'11111222,11111222,99999999' 
TABS,ioos:station:wmo:42043:1,2017-09-04T03:00:00Z,28.9818,-94.9186,2.0,167.6803731,17.81010949,-99999.0,'11111222,11111222,99999999' 
TABS,ioos:station:wmo:42043:1,2017-09-04T03:30:00Z,28.9818,-94.9186,2.0,166.6670371,17.77920133,-99999.0,'11111222,11111222,99999999' 
TABS,ioos:station:wmo:42043:1,2017-09-04T04:00:00Z,28.9818,-94.9186,2.0,172.1258698,18.97893569,-99999.0,'11111222,11111222,99999999' 
TABS,ioos:station:wmo:42043:1,2017-09-04T04:30:00Z,28.9818,-94.9186,2.0,164.1126582,13.51628647,-99999.0,'11111222,11111222,99999999' 
TABS,ioos:station:wmo:42043:1,2017-09-04T05:00:00Z,28.9818,-94.9186,2.0,165.1863601,12.51598977,-99999.0,'11111222,11111222,99999999' 
TABS,ioos:station:wmo:42043:1,2017-09-04T05:30:00Z,28.9818,-94.9186,2.0,174.2452377,12.96533841,-99999.0,'11111222,11111222,99999999' 
TABS,ioos:station:wmo:42043:1,2017-09-04T06:00:00Z,28.9818,-94.9186,2.0,178.0417267,11.70683561,-99999.0,'11111222,11111222,99999999' 
TABS,ioos:station:wmo:42043:1,2017-09-04T06:30:00Z,28.9818,-94.9186,2.0,186.3399665,12.67753919,-99999.0,'11111222,11111222,99999999' 
TABS,ioos:station:wmo:42043:1,2017-09-04T07:00:00Z,28.9818,-94.9186,2.0,198.2626368,10.53043209,-99999.0,'11111222,11111222,99999999' 
TABS,ioos:station:wmo:42043:1,2017-09-04T07:30:00Z,28.9818,-94.9186,2.0,206.5647786,9.838699101,-99999.0,'11133222,11111222,99999999' 
TABS,ioos:station:wmo:42043:1,2017-09-04T08:00:00Z,28.9818,-94.9186,2.0,207.9968714,8.947066558,-99999.0,'11133222,11111222,99999999' 
TABS,ioos:station:wmo:42043:1,2017-09-04T08:30:00Z,28.9818,-94.9186,2.0,252.0951734,6.830812543,-99999.0,'11133222,11111222,99999999' 
TABS,ioos:station:wmo:42043:1,2017-09-04T09:00:00Z,28.9818,-94.9186,2.0,238.8510709,10.6329676,-99999.0,'11111222,11111222,99999999' 
TABS,ioos:station:wmo:42043:1,2017-09-04T09:30:00Z,28.9818,-94.9186,2.0,254.7444961,10.26157883,-99999.0,'11111222,11111222,99999999' 
TABS,ioos:station:wmo:42043:1,2017-09-04T10:00:00Z,28.9818,-94.9186,2.0,263.5952413,9.861541462,-99999.0,'11133222,11111222,99999999' 
TABS,ioos:station:wmo:42043:1,2017-09-04T10:30:00Z,28.9818,-94.9186,2.0,265.4707654,10.13163363,-99999.0,'11111222,11111222,99999999' 
TABS,ioos:station:wmo:42043:1,2017-09-04T11:00:00Z,28.9818,-94.9186,2.0,277.5950465,7.566372975,-99999.0,'11133222,11111222,99999999' 
TABS,ioos:station:wmo:42043:1,2017-09-04T11:30:00Z,28.9818,-94.9186,2.0,262.8745794,8.868483523,-99999.0,'11133222,11111222,99999999' 
TABS,ioos:station:wmo:42043:1,2017-09-04T12:00:00Z,28.9818,-94.9186,2.0,270.0004209,13.6,-99999.0,'11111222,11111222,99999999' 
TABS,ioos:station:wmo:42043:1,2017-09-04T12:30:00Z,28.9818,-94.9186,2.0,272.904233,13.81774222,-99999.0,'11111222,11111222,99999999' 
TABS,ioos:station:wmo:42043:1,2017-09-04T13:00:00Z,28.9818,-94.9186,2.0,278.680819,13.25179233,-99999.0,'11111222,11111222,99999999' 
TABS,ioos:station:wmo:42043:1,2017-09-04T13:30:00Z,28.9818,-94.9186,2.0,291.1052102,12.2196563,-99999.0,'11111222,11111222,99999999' 
TABS,ioos:station:wmo:42043:1,2017-09-04T14:00:00Z,28.9818,-94.9186,2.0,286.6996261,8.352245207,-99999.0,'11133222,11111222,99999999' 
TABS,ioos:station:wmo:42043:1,2017-09-04T14:30:00Z,28.9818,-94.9186,2.0,255.465158,2.789265136,-99999.0,'11133222,11111222,99999999' 
TABS,ioos:station:wmo:42043:1,2017-09-04T15:00:00Z,28.9818,-94.9186,2.0,235.1751714,2.801785145,-99999.0,'11133222,11111222,99999999' 
TABS,ioos:station:wmo:42043:1,2017-09-04T15:30:00Z,28.9818,-94.9186,2.0,179.9997895,1.0,-99999.0,'11133222,11111222,99999999' 
TABS,ioos:station:wmo:42043:1,2017-09-04T16:00:00Z,28.9818,-94.9186,2.0,134.9998948,2.828427125,-99999.0,'11133222,11111222,99999999' 